Date String (YYYY-MM-DD hh:mm:ss) UTC,Instrument flags,absolute air pressure of the measurement (hPa),sample flow rate (lpm),inlet stack bypass flow (lpm),air temperature of the measurement (°C),ambient temperature measured by the external sensor (°C),aerosol sample conditioner tube jacket temperature (°C),OPC LED temperature (°C),internal box temperature (°C),relative humidity of the measurement (%),span deviation,mass concentration of particles derived from Lorenz-Mie calculation of OPC scattering (μg/m³),mass concentration of particles derived from Lorenz-Mie calculation of OPC scattering (μg/m³),mass concentration of particles derived from Lorenz-Mie calculation of OPC scattering (μg/m³)
DateTimeUTC,F1_M11,P_M11,Q1_M11,Q2_M11,T1_M11,T2_M11,T3_M11,T4_M11,T5_M11,U1_M11,ZSPAN_M11,X2_M11,X0_M11,X1_M11
2024-04-27 19:00:00,SystemResetWarning,0824.3,5.00,000.00,021.4,020.8,000.0,029.9,023.2,027.5,0000.0,0003.98,0007.37,0003.45
2024-04-27 19:01:00,SystemResetWarning,0824.3,5.00,000.00,021.4,020.8,000.0,029.9,023.2,027.4,0000.0,0003.96,0006.98,0003.45
2024-04-27 19:02:00,SystemResetWarning,0824.3,5.00,000.00,021.4,020.8,000.0,029.9,023.2,027.4,0000.0,0003.98,0007.10,0003.46
2024-04-27 19:03:00,SystemResetWarning,0824.3,5.00,000.00,021.4,020.8,000.0,029.9,023.2,027.3,0000.0,0004.01,0007.30,0003.46
2024-04-27 19:04:00,SystemResetWarning,0824.4,5.01,000.00,021.4,020.8,000.0,029.9,023.2,027.5,0000.0,0004.05,0007.37,0003.45
2024-04-27 19:05:00,SystemResetWarning,0824.4,5.01,000.00,021.4,020.8,000.0,029.9,023.2,027.5,0000.0,0004.06,0007.81,0003.45
2024-04-27 19:06:00,SystemResetWarning,0824.4,5.01,000.00,021.4,020.8,000.0,029.9,023.2,027.3,0000.0,0004.05,0007.78,0003.44
2024-04-27 19:07:00,SystemResetWarning,0824.4,5.00,000.00,021.4,020.8,000.0,029.9,023.2,027.5,0000.0,0004.04,0007.70,0003.44
2024-04-27 19:08:00,SystemResetWarning,0824.3,5.00,000.00,021.4,020.8,000.0,029.9,023.2,027.1,0000.0,0004.03,0007.65,0003.44
2024-04-27 19:09:00,SystemResetWarning,0824.4,5.00,000.00,021.4,020.8,000.0,029.9,023.2,027.2,0000.0,0003.98,0007.55,0003.43
2024-04-27 19:10:00,SystemResetWarning,0824.4,5.00,000.00,021.4,020.8,000.0,029.9,023.2,027.3,0000.0,0003.98,0007.62,0003.41
2024-04-27 19:11:00,SystemResetWarning,0824.4,5.00,000.00,021.4,020.7,000.0,029.9,023.2,027.3,0000.0,0003.95,0007.55,0003.40
2024-04-27 19:12:00,SystemResetWarning,0824.4,5.00,000.00,021.4,020.7,000.0,029.9,023.2,027.2,0000.0,0003.93,0007.52,0003.39
2024-04-27 19:13:00,SystemResetWarning,0824.4,4.99,000.00,021.4,020.7,000.0,029.9,023.2,027.2,0000.0,0003.92,0007.57,0003.38
2024-04-27 19:14:00,SystemResetWarning,0824.4,5.00,000.00,021.4,020.7,000.0,029.9,023.2,027.0,0000.0,0003.88,0008.08,0003.36
2024-04-27 19:15:00,SystemResetWarning,0824.4,4.99,000.00,021.4,020.7,000.0,029.9,023.2,026.7,0000.0,0003.81,0007.95,0003.33
2024-04-27 19:16:00,SystemResetWarning,0824.4,5.00,000.00,021.4,020.7,000.0,029.9,023.2,026.7,0000.0,0003.76,0007.43,0003.30
2024-04-27 19:17:00,SystemResetWarning,0824.4,5.00,000.00,021.4,020.7,000.0,029.9,023.2,026.6,0000.0,0003.70,0007.34,0003.27
2024-04-27 19:18:00,SystemResetWarning,0824.4,5.00,000.00,021.4,020.7,000.0,029.9,023.2,026.4,0000.0,0003.69,0007.34,0003.24
2024-04-27 19:19:00,SystemResetWarning,0824.4,5.00,000.00,021.4,020.7,000.0,029.9,023.2,026.4,0000.0,0003.63,0007.24,0003.19
2024-04-27 19:20:00,SystemResetWarning,0824.4,5.01,000.00,021.4,020.7,000.0,029.9,023.2,026.4,0000.0,0003.56,0007.01,0003.14
2024-04-27 19:21:00,SystemResetWarning,0824.4,5.01,000.00,021.4,020.7,000.0,029.9,023.2,026.3,0000.0,0003.47,0006.63,0003.06
2024-04-27 19:22:00,SystemResetWarning,0824.4,5.00,000.00,021.4,020.7,000.0,029.9,023.2,026.3,0000.0,0003.38,0006.48,0002.94
2024-04-27 19:23:00,SystemResetWarning,0824.5,5.01,000.00,021.4,020.7,000.0,029.9,023.2,026.5,0000.0,0003.31,0006.27,0002.84
2024-04-27 19:24:00,SystemResetWarning,0824.5,5.00,000.00,021.4,020.6,000.0,029.9,023.2,026.7,0000.0,0003.26,0006.13,0002.74
2024-04-27 19:25:00,SystemResetWarning,0824.5,4.99,000.00,021.4,020.6,000.0,029.9,023.1,026.8,0000.0,0003.19,0004.81,0002.65
2024-04-27 19:26:00,SystemResetWarning,0824.4,4.99,000.00,021.3,020.7,000.0,029.9,023.1,026.8,0000.0,0003.13,0004.59,0002.58
2024-04-27 19:27:00,SystemResetWarning,0824.4,5.01,000.00,021.3,020.7,000.0,029.9,023.1,026.6,0000.0,0003.06,0004.42,0002.52
2024-04-27 19:28:00,SystemResetWarning,0824.4,5.01,000.00,021.3,020.7,000.0,029.9,023.1,026.6,0000.0,0002.98,0004.30,0002.46
2024-04-27 19:29:00,SystemResetWarning,0824.4,4.99,000.00,021.3,020.6,000.0,029.9,023.1,026.4,0000.0,0002.89,0004.15,0002.40
2024-04-27 19:30:00,SystemResetWarning,0824.4,5.00,000.00,021.3,020.6,000.0,029.9,023.1,026.4,0000.0,0002.83,0004.02,0002.36
2024-04-27 19:31:00,SystemResetWarning,0824.4,5.00,000.00,021.3,020.6,000.0,029.9,023.1,026.6,0000.0,0002.80,0003.97,0002.35
2024-04-27 19:32:00,SystemResetWarning,0824.4,5.00,000.00,021.3,020.6,000.0,029.9,023.1,026.6,0000.0,0002.84,0004.05,0002.37
2024-04-27 19:33:00,SystemResetWarning,0824.4,5.00,000.00,021.3,020.6,000.0,029.9,023.1,026.7,0000.0,0002.85,0003.98,0002.40
2024-04-27 19:34:00,SystemResetWarning,0824.4,5.00,000.00,021.3,020.6,000.0,029.9,023.1,026.6,0000.0,0002.84,0003.96,0002.41
2024-04-27 19:35:00,SystemResetWarning,0824.4,5.01,000.00,021.3,020.6,000.0,029.9,023.1,026.5,0000.0,0002.76,0003.76,0002.40
2024-04-27 19:36:00,SystemResetWarning,0824.4,5.00,000.00,021.3,020.6,000.0,029.9,023.1,026.4,0000.0,0002.72,0003.56,0002.39
2024-04-27 19:37:00,SystemResetWarning,0824.4,5.00,000.00,021.3,020.6,000.0,029.9,023.1,026.7,0000.0,0002.74,0003.56,0002.39
2024-04-27 19:38:00,SystemResetWarning,0824.5,4.99,000.00,021.3,020.6,000.0,029.9,023.1,027.2,0000.0,0002.77,0003.60,0002.40
2024-04-27 19:39:00,SystemResetWarning,0824.4,4.99,000.00,021.3,020.6,000.0,029.9,023.1,027.2,0000.0,0002.79,0003.68,0002.40
2024-04-27 19:40:00,SystemResetWarning,0824.4,5.00,000.00,021.3,020.6,000.0,029.8,023.1,027.0,0000.0,0002.80,0003.79,0002.41
2024-04-27 19:41:00,SystemResetWarning,0824.4,5.01,000.00,021.3,020.6,000.0,029.8,023.1,026.8,0000.0,0002.79,0003.78,0002.41
2024-04-27 19:42:00,SystemResetWarning,0824.4,5.01,000.00,021.3,020.6,000.0,029.8,023.1,026.6,0000.0,0002.80,0003.81,0002.39
2024-04-27 19:43:00,SystemResetWarning,0824.4,4.98,000.00,021.3,020.6,000.0,029.8,023.1,026.7,0000.0,0002.74,0003.71,0002.36
2024-04-27 19:44:00,SystemResetWarning,0824.4,5.00,000.00,021.3,020.6,000.0,029.8,023.1,026.7,0000.0,0002.71,0003.67,0002.34
2024-04-27 19:45:00,SystemResetWarning,0824.4,5.01,000.00,021.3,020.6,000.0,029.8,023.1,026.7,0000.0,0002.66,0003.57,0002.31
2024-04-27 19:46:00,SystemResetWarning,0824.4,5.00,000.00,021.3,020.5,000.0,029.8,023.1,026.7,0000.0,0002.63,0003.52,0002.29
2024-04-27 19:47:00,SystemResetWarning,0824.4,4.99,000.00,021.3,020.5,000.0,029.8,023.1,026.7,0000.0,0002.65,0003.57,0002.27
2024-04-27 19:48:00,SystemResetWarning,0824.4,5.00,000.00,021.3,020.6,000.0,029.8,023.1,026.8,0000.0,0002.61,0003.46,0002.25
2024-04-27 19:49:00,SystemResetWarning,0824.4,5.01,000.00,021.3,020.6,000.0,029.8,023.0,026.8,0000.0,0002.57,0003.42,0002.22
2024-04-27 19:50:00,SystemResetWarning,0824.4,5.01,000.00,021.3,020.6,000.0,029.8,023.1,026.9,0000.0,0002.52,0003.30,0002.20
2024-04-27 19:51:00,SystemResetWarning,0824.4,5.00,000.00,021.3,020.6,000.0,029.8,023.1,027.1,0000.0,0002.48,0003.18,0002.18
2024-04-27 19:52:00,SystemResetWarning,0824.4,5.00,000.00,021.3,020.6,000.0,029.8,023.1,027.3,0000.0,0002.50,0003.22,0002.18
2024-04-27 19:53:00,SystemResetWarning,0824.4,5.00,000.00,021.3,020.6,000.0,029.8,023.1,027.4,0000.0,0002.51,0003.31,0002.18
2024-04-27 19:54:00,SystemResetWarning,0824.4,5.00,000.00,021.3,020.6,000.0,029.8,023.1,027.6,0000.0,0002.54,0003.34,0002.19
2024-04-27 19:55:00,SystemResetWarning,0824.4,5.00,000.00,021.3,020.6,000.0,029.8,023.1,027.5,0000.0,0002.57,0003.38,0002.20
2024-04-27 19:56:00,SystemResetWarning,0824.4,5.00,000.00,021.3,020.6,000.0,029.8,023.1,027.5,0000.0,0002.61,0003.45,0002.22
2024-04-27 19:57:00,SystemResetWarning,0824.5,5.00,000.00,021.3,020.6,000.0,029.8,023.1,027.5,0000.0,0002.68,0003.60,0002.26
2024-04-27 19:58:00,SystemResetWarning,0824.4,5.00,000.00,021.3,020.6,000.0,029.8,023.1,027.5,0000.0,0002.71,0003.65,0002.29
2024-04-27 19:59:00,SystemResetWarning,0824.4,5.00,000.00,021.3,020.6,000.0,029.8,023.1,027.5,0000.0,0002.73,0003.68,0002.32
